Volver al catálogo

THOR AGENA D R/B

ActivoLEO
NORAD 727·ROCKET BODY·🇺🇸 United States

Lanzado Jan 11, 1964 desde Vandenberg Space Force Base

Loading…

Próximos Pases (próximas 24 horas)

TLE

ActualizadoSource: Space-Track

Época: Sep 14, 2026, 13:17 UTC

1 00727U 64001A   26257.55391227 -.00000004  00000-0  36537-4 0  9996
2 00727  69.9041  98.5897 0016206 290.0122  69.9237 13.95806177189623

Sigue THOR AGENA D R/B en tiempo real con AllMySat

Download on the App Store